Date,TemperatureHighF,TemperatureAvgF,TemperatureLowF,DewpointHighF,DewpointAvgF,DewpointLowF,HumidityHigh,HumidityAvg,HumidityLow,PressureMaxIn,PressureMinIn,WindSpeedMaxMPH,WindSpeedAvgMPH,GustSpeedMaxMPH,PrecipitationSumIn
2013-2-1,51.3,32.8,16.0,28.3,18.8,9.8,86,60,24,29.98,29.77,36,9,36,0.00
2013-2-2,61.0,35.8,14.7,28.1,17.8,8.3,81,52,20,30.09,29.93,24,6,24,0.00
2013-2-3,55.9,36.8,17.8,21.1,11.6,5.4,68,40,20,30.06,29.72,17,4,17,0.00
2013-2-4,61.0,37.6,19.6,19.6,10.8,-6.3,61,35,13,29.84,29.58,26,5,26,0.00
2013-2-5,55.4,37.7,18.0,22.9,17.1,7.0,71,45,23,29.88,29.66,21,5,21,0.00
2013-2-6,54.1,40.5,26.6,28.5,21.8,15.2,73,49,26,29.91,29.60,22,6,22,0.00
2013-2-7,50.2,31.5,15.3,27.2,15.8,9.2,85,56,27,29.99,29.77,19,5,19,0.00
2013-2-8,26.8,20.6,12.0,18.4,8.1,3.7,79,58,42,30.30,29.80,6,3,6,0.00
2013-2-9,44.8,30.1,16.7,29.2,17.8,5.3,87,61,43,29.95,29.79,24,6,24,0.00
2013-2-10,36.3,30.1,20.8,18.0,10.9,3.3,67,46,25,30.27,29.86,27,14,27,0.00
2013-2-11,32.9,22.2,6.8,15.7,8.8,-5.9,81,57,44,30.29,30.10,15,4,15,0.00
2013-2-12,49.3,25.9,5.2,15.3,3.2,-6.6,68,41,21,30.26,30.04,17,5,17,0.00
2013-2-13,51.3,31.1,10.2,15.5,9.9,-1.2,67,44,22,30.23,30.00,29,7,29,0.00
2013-2-14,33.1,26.3,19.8,23.6,16.5,5.4,84,67,44,30.45,30.19,24,7,24,0.00
2013-2-15,42.3,28.5,14.0,23.4,12.5,0.6,88,57,21,30.49,30.26,36,10,36,0.04
2013-2-16,60.1,33.7,11.7,22.9,11.7,1.4,78,46,20,30.39,30.15,25,6,25,0.00
2013-2-17,62.4,38.5,19.2,21.5,12.0,0.8,68,36,18,30.18,29.75,30,9,30,0.00
2013-2-18,43.7,32.0,17.1,20.4,7.7,-4.9,68,38,21,30.28,30.02,30,11,30,0.00
2013-2-19,43.2,24.5,9.0,16.8,7.9,-2.4,69,51,26,30.30,30.00,11,3,11,0.00
2013-2-20,39.4,24.0,13.5,24.8,15.4,5.0,86,71,44,30.06,29.82,20,6,20,0.00
2013-2-21,34.3,22.7,14.9,22.7,16.3,10.2,87,76,62,30.09,29.90,20,5,20,0.07
2013-2-22,37.8,19.4,0.0,26.2,18.3,7.7,88,54,47,29.97,29.73,14,3,14,0.01
2013-2-23,45.0,26.4,10.0,27.2,15.1,1.4,89,64,32,29.94,29.73,13,4,13,0.00
2013-2-24,30.7,26.5,11.8,26.4,19.7,2.9,92,76,61,30.18,29.87,23,6,23,0.00
2013-2-25,37.8,18.5,-0.2,21.0,8.3,-9.5,74,65,44,30.19,29.85,14,4,14,0.00
2013-2-26,39.4,28.2,15.1,21.0,16.2,8.4,79,61,42,30.21,29.86,29,11,29,0.00
2013-2-27,42.6,29.1,16.2,14.4,9.1,1.8,63,44,22,30.30,30.11,21,9,21,0.00
2013-2-28,45.3,31.7,12.4,16.0,8.3,1.8,68,40,21,30.30,30.10,27,8,29,0.00